Location: *
(46.1006°N, 1.8394°E)
Time: 11:49:09
(UTC+00:00)

ERBS - Pass Details

Date: 20 September 2019
Orbit: 418 x 425 km, 57.0° (Epoch: 18 October)

Event Time Altitude Azimuth Distance (km) Brightness Sun altitude
Rises 19:17:30 0° 313° (NW) 2,394 7.3 -14.9°
Reaches altitude 10° 19:19:47 10° 325° (NW) 1,526 5.9 -15.3°
Maximum altitude 19:22:49 29° 27° (NNE) 820 3.6 -15.8°
Enters shadow 19:23:45 25° 57° (ENE) 910 3.6 -15.9°
